Voltar ao catálogo

STARLINK-5997

AtivoComunicaçõesSSO
NORAD 56327·PAYLOAD·🇺🇸 United States

Lançado Apr 27, 2023 de Vandenberg Space Force Base

Loading…

Próximas Passagens (próximas 24 horas)

TLE

AtualizadoSource: CelesTrak SupGP

Época: Sep 14, 2026, 22:23 UTC

1 56327C 23058L   26257.93312500  .00545310  00000+0  32879-1 0  2570
2 56327  97.2845 252.0423 0001338  85.7161 146.0142 15.10574777    14

Acompanhe STARLINK-5997 em tempo real com AllMySat

Download on the App Store